Weather Service Report


756 
ASUS43 KMPX 022310
RWRMN 
WEATHER ROUNDUP FOR MINNESOTA
NATIONAL WEATHER SERVICE TWIN CITIES/CHANHASSEN MN
600 PM CDT THU JUL 02 2015


NOTE: "FAIR" INDICATES FEW OR NO CLOUDS BELOW 12,000 FEET WITH NO
SIGNIFICANT WEATHER AND/OR OBSTRUCTIONS TO VISIBILITY. N/A MEANS
CURRENT SKY AND/OR WEATHER CONDITIONS ARE NOT AVAILABLE.

MNZ060>063-068>070-030000-
   Twin Cities Metro   
  
CITY           SKY/WX    TMP DP  RH WIND       PRES   REMARKS
TWIN CITIES    PTSUNNY   75  54  47 VRB6      29.98F                  
ST PAUL        MOSUNNY   75  57  53 S5        29.98F                  
CRYSTAL        PTSUNNY   77  54  44 S8        29.97F                  
BLAINE         MOSUNNY   79  52  38 SE3       29.98F                  
LAKEVILLE      MOSUNNY   73  54  49 CALM      29.99F                  
EDEN PRAIRIE   MOSUNNY   74  55  51 S6        29.98F                  
SOUTH ST PAUL  MOSUNNY   75  53  45 SE5       29.98F                  
LAKE ELMO      FAIR      73  55  53 SE3       30.00F                  
$$
MNZ001>005-007-008-013>017-022>024-027-028-030000-
   Northwest Minnesota   
  
CITY           SKY/WX    TMP DP  RH WIND       PRES   REMARKS
BEMIDJI        MOSUNNY   73  56  53 SW9       29.95F                  
HALLOCK        MOSUNNY   79  66  65 SW14      29.86F                  
ROSEAU         MOSUNNY   73  64  73 SW13      29.89S                  
WARROAD        MOSUNNY   73  64  73 SW10      29.90S                  
THIEF RVR FALL MOSUNNY   73  57  56 SW8       29.92S                  
CROOKSTON      PTSUNNY   73  61  64 SW7       29.92S                  
FOSSTON        MOSUNNY   72  54  53 S9        29.95S                  
DETROIT LAKES  SUNNY     73  52  46 S10       29.98F                  
MOORHEAD       MOSUNNY   75  54  46 S8        29.95R                  
PARK RAPIDS    MOSUNNY   76  54  46 SW12      29.96F                  
MAHNOMEN       FAIR      74  55  50 SW10      29.96R                  
$$
MNZ006-009>011-018-025>026-030000-
   North Central Minnesota   
  
CITY           SKY/WX    TMP DP  RH WIND       PRES   REMARKS
BAUDETTE       MOSUNNY   74  54  49 SW10      29.90F                  
FLAG ISLAND    MOSUNNY   73  61  64 SW12      29.86F                  
INTL FALLS     MOSUNNY   74  59  59 W8        29.90F                  
WASKISH        MOSUNNY   73  61  64 SW6       29.92F                  
BIG FORK       MOSUNNY   73  57  56 SW9       29.95S                  
LONGVILLE      MOSUNNY   75  55  50 S7        29.96F                  
GRAND RAPIDS   PTSUNNY   73  55  53 SW6       29.96F                  
CRANE LAKE     MOSUNNY   73  55  53 SW8       29.93F                  
ORR            MOSUNNY   73  55  53 CALM      29.91F                  
COOK           MOSUNNY   73  57  56 SW7       29.94F                  
WALKER         FAIR      74  56  55 SW7       29.95F                  
$$
MNZ012-019>021-037-030000-
   Northeast Minnesota   
  
CITY           SKY/WX    TMP DP  RH WIND       PRES   REMARKS
DULUTH         MOSUNNY   75  56  51 SW10      29.96F                  
ELY            MOSUNNY   73  55  53 SW8       29.93F                  
HIBBING        MOSUNNY   75  57  53 VRB6      29.95F                  
EVELETH        MOSUNNY   75  59  57 SW8       29.96F                  
DULUTH HARBOR  SUNNY     79  59  50 SW10      29.94F                  
TWO HARBORS    MOSUNNY   79  64  61 SW10      29.93F                  
GRAND MARAIS     N/A     57  53  86 SW5       29.92F                  
G MARAIS ARPRT PTSUNNY   66  57  72 SW3       29.96F                  
$$
MNZ029>031-032-039>041-046>048-054>057-064-030000-
   West Central Minnesota   
  
CITY           SKY/WX    TMP DP  RH WIND       PRES   REMARKS
FERGUS FALLS   SUNNY     73  52  46 S10       29.95F                  
WHEATON        SUNNY     72  50  46 S5        29.98F                  
MORRIS         SUNNY     75  48  38 S7        29.97F                  
ALEXANDRIA     SUNNY     73  50  44 S8        30.01F                  
ELBOW LAKE     FAIR      73  50  44 S8        29.97F                  
WADENA         SUNNY     73  55  53 SW8       29.97F                  
GLENWOOD       SUNNY     73  48  40 S7        30.01S                  
APPLETON       MOSUNNY   75  46  35 SE3       29.98F                  
BENSON         MOSUNNY   75  48  38 SW3       29.99S                  
ORTONVILLE     SUNNY     73  52  46 S6        29.98S                  
MADISON        MOSUNNY   73  52  46 S3        29.99S                  
WILLMAR        FAIR      75  50  41 S5        30.01S                  
$$
MNZ033>034-036-042>043-049>051-058-059-030000-
   Central Minnesota     
  
CITY           SKY/WX    TMP DP  RH WIND       PRES   REMARKS
ST CLOUD       SUNNY     75  53  46 SW7       29.99F                  
SAUK CENTRE    FAIR      73  53  49 S3        29.99F                  
PAYNESVILLE    MOSUNNY   71  52  50 E5        30.00S                  
AITKIN         SUNNY     75  57  53 SW7       29.96F                  
PINE RIVER       N/A     75  57  53 S7        30.00F                  
BRAINERD       SUNNY     75  53  46 S12       29.98F                  
STAPLES        MOSUNNY   73  54  49 S8        29.98F                  
LONG PRAIRIE   PTSUNNY   72  54  53 S6        30.00F                  
LITTLE FALLS   PTSUNNY   73  50  43 S7        29.99F                  
LITCHFIELD     PTSUNNY   75  54  46 CALM      30.00S                  
BUFFALO        MOSUNNY   73  53  47 S3        30.00F                  
MAPLE LAKE     MOSUNNY   74  59  58 CALM      30.00F                  
$$
MNZ037-044-045-052-053-030000-
   East Central Minnesota   
  
CITY           SKY/WX    TMP DP  RH WIND       PRES   REMARKS
PRINCETON      MOSUNNY   79  54  41 SW7       29.98F                  
MORA           SUNNY     73  50  43 S3        30.00F                  
CAMBRIDGE      SUNNY     79  57  47 SW3       29.97S                  
RUSH CITY      SUNNY     75  53  45 SW6       29.99S                  
MOOSE LAKE     SUNNY     73  63  68 S7        29.96S                  
HINCKLEY       FAIR      77  55  47 SW3       29.98F                  
CLOQUET        SUNNY     75  54  46 S8        29.97S                  
MCGREGOR       SUNNY     73  54  49 SW8       29.98F                  
$$
MNZ071>073-080-081-089-090-097-098-030000-
   Southwest Minnesota   
  
CITY           SKY/WX    TMP DP  RH WIND       PRES   REMARKS
MONTEVIDEO     MOSUNNY   75  52  43 S3        30.00S                  
GRANITE FALLS  PTSUNNY   73  52  46 CALM      30.01S                  
CANBY          PTSUNNY   72  52  48 CALM      30.00S                  
MARSHALL       PTSUNNY   72  46  40 SE6       29.98F                  
REDWOOD FALLS  PTSUNNY   74  49  41 SE7       29.99S                  
OLIVIA         PTSUNNY   72  46  40 S5        29.99F                  
PIPESTONE      CLOUDY    70  50  49 S6        30.01S                  
WINDOM         PTSUNNY   73  39  29 CALM      30.00S                  
WORTHINGTON    PTSUNNY   68  46  45 E6        30.01S                  
JACKSON        MOSUNNY   73  46  38 SE6       30.01S                  
TRACY          PTSUNNY   73  54  50 E5        30.00F                  
SLAYTON        PTSUNNY   71  46  40 CALM      30.02S                  
$$
MNZ065>067-074>077-082>085-091>093-030000-
   South Central Minnesota  
  
CITY           SKY/WX    TMP DP  RH WIND       PRES   REMARKS
MANKATO        PTSUNNY   72  52  49 CALM      30.00S                  
NEW ULM        PTSUNNY   72  48  43 SE3       29.99F                  
ST JAMES       PTSUNNY   75  46  35 SE3       29.99F                  
FAIRMONT       MOSUNNY   73  43  33 S7        29.99F                  
GLENCOE        PTSUNNY   74  57  54 S5        29.99F                  
FARIBAULT      PTSUNNY   75  54  46 CALM      30.00S                  
OWATONNA       MOSUNNY   73  52  46 SE5       30.00S                  
WASECA         PTSUNNY   72  52  49 SE3       30.01S                  
ALBERT LEA     PTSUNNY   73  52  46 SE7       29.99F                  
$$
MNZ078>079-086>088-094>096-030000-
   Southeast Minnesota   
  
CITY           SKY/WX    TMP DP  RH WIND       PRES   REMARKS
ROCHESTER      MOSUNNY   73  54  51 E6        30.01F                  
RED WING       MOSUNNY   75  50  41 SE3       29.98F                  
STANTON        MOSUNNY   75  52  43 SE5       29.98F                  
DODGE CENTER   MOSUNNY   73  54  49 CALM      30.00F                  
WINONA         SUNNY     73  54  49 E5        29.99F                  
AUSTIN         PTSUNNY   73  50  43 CALM      29.99F                  
PRESTON        MOSUNNY   72  52  49 NE3       30.01S                  
$$
ABBREVIATIONS USED IN REMARKS
   TC - TEMPERATURES IN CELSIUS
  WCI - WIND CHILL INDEX
   HX - HEAT INDEX
  VSB - VISIBILITY 
$$

Return to Home page


Western Regional Climate Center, wrcc@dri.edu